Weather History for Barter Island, AK

Change the Weather History Date:

Monday, April 15, 2013

  Actual Average Record
Temperature  
Mean Temperature 0 °F -  
Max Temperature -9 °F 10 °F 34 °F (1998)
Min Temperature -11 °F 0 °F -15 °F (2004)
Degree Days  
Heating Degree Days 64    
Moisture  
Dew Point -8 °F    
Average Humidity 80    
Maximum Humidity 87    
Minimum Humidity 59    
Precipitation  
Precipitation 0.00 in - - ()
Sea Level Pressure  
Sea Level Pressure 30.94 in    
Wind  
Wind Speed 8 mph (West)    
Max Wind Speed 10 mph    
Max Gust Speed -    
Visibility 10 miles    
Events Snow    
Averages and records for this station are not official NWS values.
T = Trace of Precipitation, MM = Missing Value Source: NWS Daily Summary

Daily Weather History Graph

Daily Weather History Graph

Search for Another Location

Airport:

Trip Planner

Search our weather history database for the weather conditions in past years. The results will help you decide how hot, cold, wet, or windy it might be!

Date:

Astronomy

Apr. 15, 2013 Rise Set
Actual Time 5:26 AM AKDT 9:45 PM AKDT
Civil Twilight 4:03 AM AKDT 11:10 PM AKDT
Nautical Twilight Sun does not rise Sun does not rise
Astronomical Twilight Sun does not rise Sun does not rise
Moon No Moon Rise No Moon Set
Length of Visible Light 19h 07m
Length of Day
16h 18m
Waxing Crescent, 26% of the Moon is Illuminated
Apr 15
Waxing Crescent
Apr 18
First Quarter
Apr 25
Full
May 2
Last Quarter
May 9
New

Hourly Weather History & Observations

Time (AKDT) Temp. Windchill Dew Point Humidity Pressure Visibility Wind Dir Wind Speed Gust Speed Precip Events Conditions
12:01 AM -8.0 °F -26.1 °F -11.0 °F 86% 30.91 in 10.0 mi West 10.4 mph - 0.00 in   Unknown
1:01 AM -8.0 °F -25.0 °F -11.9 °F 83% 30.93 in 10.0 mi West 9.2 mph - N/A   Unknown
2:01 AM -9.9 °F -27.5 °F -14.1 °F 82% 30.94 in 10.0 mi West 9.2 mph - N/A   Unknown
3:01 AM -11.0 °F -29.9 °F -15.0 °F 83% 30.95 in 10.0 mi West 10.4 mph - N/A   Unknown
4:01 AM -11.0 °F -29.9 °F -15.0 °F 83% 30.95 in 9.0 mi West 10.4 mph - 0.00 in Snow Light Snow
5:01 AM -11.9 °F -31.0 °F -16.1 °F 82% 30.96 in 10.0 mi WSW 10.4 mph - 0.00 in Snow Light Snow
6:01 AM -11.0 °F -28.8 °F -15.0 °F 83% 30.97 in 10.0 mi WSW 9.2 mph - 0.00 in   Unknown
7:01 AM -9.9 °F -28.6 °F -14.1 °F 82% 30.97 in 10.0 mi WSW 10.4 mph - N/A   Unknown
8:01 AM -8.0 °F -25.0 °F -11.9 °F 83% 30.98 in 10.0 mi West 9.2 mph - N/A   Unknown
9:01 AM -6.0 °F -21.5 °F -9.9 °F 83% 30.98 in 10.0 mi WSW 8.1 mph - N/A   Unknown
10:01 AM -5.1 °F -21.5 °F -9.0 °F 83% 30.98 in 10.0 mi West 9.2 mph - N/A   Unknown
11:01 AM -2.9 °F -16.5 °F -7.1 °F 82% 30.97 in 10.0 mi West 6.9 mph - N/A   Unknown
12:01 PM -2.0 °F -15.4 °F -6.0 °F 83% 30.97 in 10.0 mi West 6.9 mph - N/A   Unknown
1:01 PM 1.0 °F -8.7 °F -2.9 °F 83% 30.97 in 10.0 mi West 4.6 mph - N/A   Unknown
2:01 PM 3.9 °F -3.4 °F -2.0 °F 76% 30.97 in 10.0 mi WSW 3.5 mph - N/A   Unknown
3:01 PM 3.0 °F -6.4 °F -0.9 °F 84% 30.96 in 10.0 mi West 4.6 mph - N/A   Unknown
4:01 PM 3.0 °F -4.4 °F -0.9 °F 84% 30.95 in 10.0 mi WNW 3.5 mph - N/A   Unknown
5:01 PM 5.0 °F - -0.0 °F 80% 30.93 in 10.0 mi Calm Calm - N/A   Unknown
6:01 PM 12.0 °F - -0.0 °F 59% 30.92 in 10.0 mi Calm Calm - N/A   Unknown
7:01 PM 10.0 °F - -0.9 °F 61% 30.92 in 10.0 mi Calm Calm - N/A   Unknown
8:01 PM 5.0 °F - -4.0 °F 66% 30.91 in 10.0 mi Calm Calm - N/A   Unknown
9:01 PM -0.9 °F - -7.1 °F 75% 30.90 in 10.0 mi Calm Calm - N/A   Unknown
10:01 PM -6.0 °F -14.7 °F -9.9 °F 83% 30.89 in 10.0 mi East 3.5 mph - N/A   Unknown
11:01 PM -7.1 °F -21.4 °F -9.9 °F 87% 30.88 in 10.0 mi ENE 6.9 mph - N/A   Unknown